Wadena, MN

2:25 AM CST on January 19, 2018 (GMT -0600)
Wadena Municipal

Weather History for KADC - April, 2013

Change the Weather History Date:

Sunday, April 7, 2013

  Actual Average Record
Temperature  
Mean Temperature 32 °F -  
Max Temperature 35 °F 50 °F 82 °F (1991)
Min Temperature 30 °F 25 °F -3 °F (1936)
Degree Days  
Heating Degree Days 32    
Moisture  
Dew Point 26 °F    
Average Humidity 80    
Maximum Humidity 100    
Minimum Humidity 70    
Precipitation  
Precipitation 0.12 in - - ()
Sea Level Pressure  
Sea Level Pressure 29.82 in    
Wind  
Wind Speed 5 mph (East)    
Max Wind Speed 10 mph    
Max Gust Speed -    
Visibility 9 miles    
Events Rain    
Averages and records for this station are not official NWS values.
T = Trace of Precipitation, MM = Missing Value Source: NWS Daily Summary

Daily Weather History Graph

Daily Weather History Graph

Search for Another Location

Airport or City:

Trip Planner

Search our weather history database for the weather conditions in past years. The results will help you decide how hot, cold, wet, or windy it might be!

Date:

Astronomy

Apr. 07, 2013 Rise Set
Actual Time 6:48 AM CDT 7:58 PM CDT
Civil Twilight 6:17 AM CDT 8:29 PM CDT
Nautical Twilight 5:40 AM CDT 9:06 PM CDT
Astronomical Twilight 5:01 AM CDT 9:46 PM CDT
Moon 5:15 AM CDT (4/7) 5:24 PM CDT (4/7)
Length of Visible Light 14h 11m
Length of Day
13h 09m
Waning Crescent, 8% of the Moon is Illuminated
Apr 7
Waning Crescent
Apr 10
New
Apr 18
First Quarter
Apr 25
Full
May 2
Last Quarter

Hourly Weather History & Observations

Time (CDT) Temp. Windchill Dew Point Humidity Pressure Visibility Wind Dir Wind Speed Gust Speed Precip Events Conditions
12:15 AM 30.2 °F 22.6 °F 26.6 °F 86% 29.78 in 10.0 mi NW 8.1 mph - N/A   Overcast
12:34 AM 30.2 °F 21.9 °F 26.6 °F 86% 29.78 in 10.0 mi NW 9.2 mph - N/A   Overcast
12:53 AM 30.2 °F 21.9 °F 26.6 °F 86% 29.79 in 10.0 mi NW 9.2 mph - N/A   Overcast
1:15 AM 30.2 °F 22.6 °F 26.6 °F 86% 29.79 in 10.0 mi NW 8.1 mph - N/A   Overcast
1:34 AM 30.2 °F 23.4 °F 26.6 °F 86% 29.79 in 10.0 mi WNW 6.9 mph - N/A   Overcast
1:53 AM 30.2 °F 22.6 °F 26.6 °F 86% 29.79 in 10.0 mi WNW 8.1 mph - N/A   Overcast
2:15 AM 30.2 °F 24.3 °F 26.6 °F 86% 29.80 in 10.0 mi WNW 5.8 mph - N/A   Overcast
2:35 AM 30.2 °F 24.3 °F 26.6 °F 86% 29.80 in 10.0 mi NW 5.8 mph - N/A   Overcast
2:53 AM 30.2 °F 22.6 °F 26.6 °F 86% 29.80 in 10.0 mi NW 8.1 mph - N/A   Overcast
3:14 AM 30.2 °F 23.4 °F 26.6 °F 86% 29.80 in 10.0 mi NNW 6.9 mph - N/A   Overcast
3:35 AM 30.2 °F 21.3 °F 26.6 °F 86% 29.80 in 10.0 mi NNW 10.4 mph - N/A   Overcast
3:53 AM 30.2 °F 21.9 °F 26.6 °F 86% 29.80 in 10.0 mi North 9.2 mph - N/A   Overcast
4:14 AM 30.2 °F 25.4 °F 24.8 °F 80% 29.81 in 10.0 mi North 4.6 mph - N/A   Overcast
4:35 AM 30.2 °F 22.6 °F 24.8 °F 80% 29.81 in 10.0 mi North 8.1 mph - N/A   Overcast
4:53 AM 30.2 °F 24.3 °F 24.8 °F 80% 29.82 in 10.0 mi North 5.8 mph - N/A   Overcast
5:14 AM 30.2 °F 23.4 °F 24.8 °F 80% 29.83 in 10.0 mi North 6.9 mph - N/A   Overcast
5:35 AM 30.2 °F 23.4 °F 24.8 °F 80% 29.83 in 10.0 mi North 6.9 mph - N/A   Overcast
5:52 AM 30.2 °F 24.3 °F 24.8 °F 80% 29.83 in 10.0 mi North 5.8 mph - N/A   Overcast
6:15 AM 30.2 °F - 24.8 °F 80% 29.84 in 10.0 mi Calm Calm - N/A   Overcast
6:34 AM 30.2 °F - 24.8 °F 80% 29.85 in 10.0 mi Calm Calm - N/A   Overcast
6:53 AM 30.2 °F - 24.8 °F 80% 29.86 in 10.0 mi Calm Calm - N/A   Overcast
7:15 AM 30.2 °F - 24.8 °F 80% 29.86 in 10.0 mi Calm Calm - N/A   Overcast
7:35 AM 30.2 °F - 24.8 °F 80% 29.86 in 10.0 mi Calm Calm - N/A   Overcast
7:53 AM 30.2 °F - 24.8 °F 80% 29.87 in 10.0 mi Calm Calm - N/A   Overcast
8:15 AM 30.2 °F - 24.8 °F 80% 29.86 in 10.0 mi Calm Calm - N/A   Overcast
8:35 AM 30.2 °F - 24.8 °F 80% 29.86 in 10.0 mi Calm Calm - N/A   Overcast
8:52 AM 30.2 °F - 24.8 °F 80% 29.87 in 10.0 mi Calm Calm - N/A   Overcast
9:14 AM 30.2 °F - 24.8 °F 80% 29.87 in 10.0 mi Calm Calm - N/A   Overcast
9:35 AM 30.2 °F - 24.8 °F 80% 29.87 in 10.0 mi Calm Calm - N/A   Overcast
9:52 AM 30.2 °F - 24.8 °F 80% 29.87 in 10.0 mi Calm Calm - N/A   Overcast
10:15 AM 30.2 °F - 24.8 °F 80% 29.87 in 10.0 mi Calm Calm - N/A   Overcast
10:35 AM 30.2 °F - 24.8 °F 80% 29.87 in 10.0 mi Calm Calm - N/A   Overcast
10:53 AM 30.2 °F - 24.8 °F 80% 29.88 in 10.0 mi Calm Calm - N/A   Overcast
11:15 AM 32.0 °F - 24.8 °F 75% 29.89 in 10.0 mi Calm Calm - N/A   Overcast
11:34 AM 32.0 °F - 24.8 °F 75% 29.89 in 10.0 mi Calm Calm - N/A   Overcast
11:53 AM 32.0 °F - 24.8 °F 75% 29.89 in 10.0 mi Calm Calm - N/A   Overcast
12:15 PM 32.0 °F 28.7 °F 24.8 °F 75% 29.88 in 10.0 mi SE 3.5 mph - N/A   Overcast
12:35 PM 32.0 °F 28.7 °F 24.8 °F 75% 29.87 in 10.0 mi ESE 3.5 mph - N/A   Overcast
12:53 PM 33.8 °F 29.6 °F 24.8 °F 70% 29.87 in 10.0 mi SE 4.6 mph - N/A   Overcast
1:14 PM 33.8 °F 28.6 °F 24.8 °F 70% 29.86 in 10.0 mi SE 5.8 mph - N/A   Overcast
1:35 PM 33.8 °F 28.6 °F 26.6 °F 75% 29.86 in 10.0 mi SSE 5.8 mph - N/A   Overcast
1:53 PM 33.8 °F 28.6 °F 26.6 °F 75% 29.85 in 10.0 mi SSE 5.8 mph - N/A   Overcast
2:15 PM 33.8 °F 27.0 °F 26.6 °F 75% 29.84 in 10.0 mi SSE 8.1 mph - N/A   Overcast
2:34 PM 33.8 °F 27.0 °F 26.6 °F 75% 29.83 in 10.0 mi SSE 8.1 mph - N/A   Overcast
2:53 PM 33.8 °F 27.0 °F 26.6 °F 75% 29.82 in 10.0 mi SE 8.1 mph - N/A   Overcast
3:15 PM 33.8 °F 27.0 °F 26.6 °F 75% 29.82 in 10.0 mi SSE 8.1 mph - N/A   Overcast
3:35 PM 33.8 °F 27.0 °F 26.6 °F 75% 29.81 in 10.0 mi SSE 8.1 mph - N/A   Overcast
3:53 PM 35.6 °F 30.7 °F 26.6 °F 70% 29.80 in 10.0 mi SE 5.8 mph - N/A   Overcast
4:14 PM 35.6 °F 30.7 °F 26.6 °F 70% 29.80 in 10.0 mi SSE 5.8 mph - N/A   Mostly Cloudy
4:35 PM 35.6 °F 28.6 °F 26.6 °F 70% 29.78 in 10.0 mi SSE 9.2 mph - N/A   Mostly Cloudy
4:52 PM 35.6 °F 29.2 °F 26.6 °F 70% 29.79 in 10.0 mi SSE 8.1 mph - N/A   Scattered Clouds
5:15 PM 35.6 °F 28.6 °F 26.6 °F 70% 29.78 in 10.0 mi SE 9.2 mph - N/A   Mostly Cloudy
5:35 PM 35.6 °F 28.6 °F 26.6 °F 70% 29.79 in 10.0 mi SSE 9.2 mph - N/A   Scattered Clouds
5:53 PM 35.6 °F 29.9 °F 26.6 °F 70% 29.80 in 10.0 mi South 6.9 mph - N/A   Mostly Cloudy
6:15 PM 33.8 °F 27.7 °F 26.6 °F 75% 29.80 in 10.0 mi South 6.9 mph - N/A   Overcast
6:34 PM 35.6 °F - 26.6 °F 70% 29.80 in 10.0 mi Calm Calm - N/A   Overcast
6:53 PM 33.8 °F - 28.4 °F 81% 29.81 in 10.0 mi Calm Calm - N/A   Mostly Cloudy
7:15 PM 35.6 °F - 26.6 °F 70% 29.80 in 10.0 mi Calm Calm - N/A   Overcast
7:35 PM 33.8 °F - 26.6 °F 75% 29.81 in 10.0 mi Calm Calm - N/A   Overcast
7:53 PM 33.8 °F - 26.6 °F 75% 29.80 in 10.0 mi Calm Calm - N/A   Overcast
8:14 PM 33.8 °F - 26.6 °F 75% 29.80 in 10.0 mi Calm Calm - N/A Rain Light Rain
8:35 PM 33.8 °F 30.8 °F 28.4 °F 81% 29.79 in 10.0 mi East 3.5 mph - N/A   Light Drizzle
8:52 PM 33.8 °F 29.6 °F 26.6 °F 75% 29.79 in 10.0 mi East 4.6 mph - N/A Rain Light Rain
9:14 PM 33.8 °F 29.6 °F 28.4 °F 81% 29.78 in 10.0 mi East 4.6 mph - N/A Rain Light Rain
9:35 PM 33.8 °F 29.6 °F 28.4 °F 81% 29.79 in 5.0 mi ENE 4.6 mph - N/A Rain Light Rain
9:53 PM 32.0 °F 27.5 °F 28.4 °F 87% 29.79 in 4.0 mi ENE 4.6 mph - 0.01 in Rain Rain
10:15 PM 32.0 °F 26.4 °F 30.2 °F 93% 29.78 in 3.0 mi ENE 5.8 mph - 0.02 in Rain Rain
10:35 PM 32.0 °F 28.7 °F 30.2 °F 93% 29.79 in 4.0 mi East 3.5 mph - 0.05 in   Overcast
10:53 PM 30.2 °F 26.7 °F 30.2 °F 100% 29.79 in 4.0 mi East 3.5 mph - 0.07 in Rain Light Freezing Rain
11:15 PM 30.2 °F 26.7 °F 30.2 °F 100% 29.78 in 4.0 mi East 3.5 mph - 0.02 in Rain Light Freezing Rain
11:35 PM 30.2 °F 24.3 °F 30.2 °F 100% 29.77 in 3.0 mi East 5.8 mph - 0.03 in Rain Light Freezing Rain
11:53 PM 30.2 °F 23.4 °F 30.2 °F 100% 29.76 in 4.0 mi East 6.9 mph - 0.04 in Rain Light Freezing Rain